Starlink 34340

operational
NORAD ID: 64163 Int'l Des: 2025-112 Owner: SPXS Country: US Constellation: starlink
LEOCIRCULARRETROGRADESSO

About Starlink 34340

Description loading...

Live Position

Loading 3D Globe...

Upcoming Passes

Altitude History

Altitude vs Time

uPlot chart will show altitude changes over time

Two-Line Element Set

1 64163U 25112T 26102.96693459 .00003135 00000-0 22140-3 0 9997
2 64163 97.6024 155.2762 0001071 134.6336 225.4978 15.05650684 48462
Epoch: Apr 12, 2026 • Age: 5 hours

Current Status

Altitude 562.1 km
Velocity 7.59 km/s
Sub-Earth Point 76.72°N, 145.23°W
Launch Date May 27, 2025
Age 0.8 years
Type internet

Technical Details

Classification Payload
Mass 575.00 kg
Dry Mass 530.00 kg
Total Mass 575.00 kg
Length 0.30 m
Diameter 4.10 m
Span 29.00 m
Shape Box + pan
Manufacturer SPXS
Bus Type Starlink V2MO
Phase Status In Orbit
Owner/State SPXS/US

Large Constellations

Loading constellations...